2014 Ontario Midget Championship | Zone4.ca

2014 Ontario Midget Championship

Date: Mar 1, 2014
Official  Results
Location: Coleman Towhship, ON
Host Club: Temiskaming Nordic Ski Club

Jury
Technical Delegate:  Al White 
Chief of Competition:  Barrie Story 
Coach:  Marylin Suke 
Race Start:  10:00 
Obs. Time: 09:00
Wind Vel:   Wind Dir:
Air Temp: Snow Temp:
Weather: Snow Cond:

Pee-Wee girl/fille 3 3 km. Free    
PL Bib Name DOB Club Time Diff
1 462 Cara Pekos 2002 Team Hardwood 0:12:18.2  
2 464 Anna Stewart 2003 Big Thunder Nordic 0:13:23.7 +1:05.5
3 482 Fiona Shearing 2002 Arrowhead Nordic 0:13:38.1 +1:19.9
4 476 Jillian Cutler 2003 Georgian Nordic 0:13:56.4 +1:38.2
5 468 Sophie Levasseur 2002 Pembroke Nordic 0:14:00.2 +1:42.0
6 469 Samantha Csisztu 2003 Pembroke Nordic 0:14:00.5 +1:42.3
7 477 Leyla Barber 2002 Team Hardwood 0:14:06.6 +1:48.4
8 475 Monica Foley 2003 Highland Trailblazer 0:14:17.8 +1:59.6
9 487 Sofie Ohrling 2002 Highland Trailblazer 0:14:26.4 +2:08.2
10 483 Chandra Rousseau 2002 Soo Finnish 0:14:26.9 +2:08.7
11 466 Jenica Whitla 2002 Team Hardwood 0:14:34.3 +2:16.1
12 463 Emma Cornell 2003 Highland Trailblazer 0:14:42.3 +2:24.1
13 480 Sierra Macdonald 2002 Horseshoe Nordic 0:14:56.3 +2:38.1
14 481 Nadine Oliynyk 2002 Highland Trailblazer 0:15:03.7 +2:45.5
15 485 Courtney Gingras 2002 Soo Finnish 0:15:06.8 +2:48.6
16 461 Rachel Anderson 2003 Georgian Nordic 0:15:15.9 +2:57.7
17 471 Allison Westbroek 2002 Kawartha Nordic 0:15:43.8 +3:25.6
18 486 Sadie Campbell 2003 Highlands Trailblazers 0:15:54.2 +3:36.0
19 479 Sophia Marshall 2003 Arrowhead Nordic 0:16:10.3 +3:52.1
20 484 Katie Wood 2002 Big Thunder Nordic 0:16:30.3 +4:12.1
21 473 Isabel Lewin 2003 North Highlands Nordic 0:17:20.4 +5:02.2
22 474 Lily Stibbards-Lyle 2002 Kawartha Nordic 0:17:25.2 +5:07.0
23 472 Minnie Barbaro 2002 Horseshoe NExT 0:17:53.3 +5:35.1
24 488 Sloane Fabbro 2002 Temiskaming 0:18:08.7 +5:50.5
25 465 Molly Trayling 2002 Horseshoe 0:18:26.9 +6:08.7
26 470 Erin Doble 2004 Horseshoe NExT 0:20:49.6 +8:31.4
27 467 Sarah D'Hondt 2004 temiskaming nordic ski club 0:22:46.1 +10:27.9
28 478 Lourena D'Hondt 2003 Temiskaming Nordic ski club 0:28:59.6 +16:41.4


Results are posted through an automated system by licenced clubs. For inquires about result corrections please contact the race organizer.

Copyright 2019 - Zone4 Systems zone4.ca       Privacy Policy     Delivery/Refund Policy     Terms of Service    Contact Zone4